Istanbul, Turkey

10:08 AM +03 on December 09, 2016 (GMT +0300)
Ataturk

Weather History for LTBA - February, 2013

Change the Weather History Date:

Tuesday, February 5, 2013

  Actual Average Record
Temperature  
Mean Temperature 50 °F -  
Max Temperature 57 °F 48 °F 65 °F (2015)
Min Temperature 42 °F 37 °F 24 °F (1997)
Degree Days  
Heating Degree Days 16    
Moisture  
Dew Point 38 °F    
Average Humidity 72    
Maximum Humidity 100    
Minimum Humidity 33    
Precipitation  
Precipitation 0.00 in - - ()
Sea Level Pressure  
Sea Level Pressure 30.03 in    
Wind  
Wind Speed 7 mph ()    
Max Wind Speed 14 mph    
Max Gust Speed -    
Visibility 5.5 miles    
Events Rain    
Averages and records for this station are not official NWS values.
T = Trace of Precipitation, MM = Missing Value Source: Averaged Metar Reports

Daily Weather History Graph

Daily Weather History Graph

Search for Another Location

Airport or City:

Trip Planner

Search our weather history database for the weather conditions in past years. The results will help you decide how hot, cold, wet, or windy it might be!

Date:

Astronomy

Feb. 05, 2013 Rise Set
Actual Time 7:11 AM EET 5:26 PM EET
Civil Twilight 6:42 AM EET 5:55 PM EET
Nautical Twilight 6:09 AM EET 6:28 PM EET
Astronomical Twilight 5:37 AM EET 7:00 PM EET
Moon 2:32 AM EET (2/5) 12:24 PM EET (2/5)
Length of Visible Light 11h 13m
Length of Day
10h 15m
Waning Crescent, 30% of the Moon is Illuminated
Feb 5
Waning Crescent
Feb 10
New
Feb 17
First Quarter
Feb 25
Full
Mar 4
Last Quarter

Hourly Weather History & Observations

Time (EET) Temp. Windchill Dew Point Humidity Pressure Visibility Wind Dir Wind Speed Gust Speed Precip Events Conditions
12:20 AM 50.0 °F - 44.6 °F 82% 30.06 in 4.3 mi Variable 1.2 mph - N/A Rain Light Rain Showers
12:50 AM 50.0 °F - 46.4 °F 87% 30.06 in 6.2 mi WNW 3.5 mph - N/A Rain Light Rain Showers
1:20 AM 48.2 °F - 46.4 °F 93% 30.06 in 5.0 mi NW 9.2 mph - N/A Rain Light Rain Showers
1:50 AM 46.4 °F 41.9 °F 44.6 °F 93% 30.06 in 5.0 mi North 9.2 mph - N/A Rain Light Rain Showers
2:00 AM 46 °F - 45 °F 94% 30.09 in 5 mi North 9.2 mph - - Rain Light Rain Showers
2:20 AM 44.6 °F 38.8 °F 44.6 °F 100% 30.06 in 3.7 mi North 11.5 mph - N/A Rain Light Rain Showers
2:50 AM 44.6 °F 39.7 °F 44.6 °F 100% 30.09 in 2.5 mi North 9.2 mph - N/A Rain Rain Showers
3:20 AM 44.6 °F 39.2 °F 44.6 °F 100% 30.09 in 3.7 mi NNW 10.4 mph - N/A Rain Light Rain Showers
3:50 AM 44.6 °F 38.1 °F 42.8 °F 93% 30.09 in 5.0 mi North 13.8 mph - N/A Rain Light Rain Showers
4:20 AM 44.6 °F 39.7 °F 44.6 °F 100% 30.09 in 5.0 mi North 9.2 mph - N/A Rain Light Rain Showers
4:50 AM 44.6 °F 38.4 °F 42.8 °F 93% 30.09 in 6.2 mi NNE 12.7 mph - N/A   Mostly Cloudy
5:20 AM 44.6 °F 38.8 °F 41.0 °F 87% 30.09 in 6.2 mi NNE 11.5 mph - N/A   Mostly Cloudy
5:50 AM 44.6 °F 40.7 °F 41.0 °F 87% 30.09 in 6.2 mi NNE 6.9 mph - N/A   Mostly Cloudy
6:20 AM 44.6 °F 39.2 °F 41.0 °F 87% 30.09 in 6.2 mi NNE 10.4 mph - N/A   Mostly Cloudy
6:50 AM 44.6 °F 40.7 °F 41.0 °F 87% 30.09 in 6.2 mi NNE 6.9 mph - N/A   Mostly Cloudy
7:20 AM 46.4 °F 42.9 °F 39.2 °F 76% 30.12 in 6.2 mi NE 6.9 mph - N/A   Mostly Cloudy
7:50 AM 44.6 °F 39.7 °F 41.0 °F 87% 30.12 in 6.2 mi NE 9.2 mph - N/A   Mostly Cloudy
8:00 AM 45 °F - 40 °F 77% 30.14 in 6 mi NE 9.2 mph - -   Partly Cloudy
8:20 AM 46.4 °F 42.4 °F 41.0 °F 81% 30.12 in 6.2 mi NE 8.1 mph - N/A   Scattered Clouds
8:50 AM 46.4 °F 42.9 °F 39.2 °F 76% 30.12 in 6.2 mi ENE 6.9 mph - N/A   Scattered Clouds
9:20 AM 46.4 °F 43.5 °F 39.2 °F 76% 30.12 in 6.2 mi ENE 5.8 mph - N/A   Scattered Clouds
9:50 AM 48.2 °F - 37.4 °F 66% 30.12 in 6.2 mi NE 6.9 mph - N/A   Scattered Clouds
10:20 AM 50.0 °F - 35.6 °F 58% 30.12 in 6.2 mi NE 9.2 mph - N/A   Partly Cloudy
10:50 AM 51.8 °F - 32.0 °F 47% 30.12 in 6.2 mi NE 11.5 mph - N/A   Partly Cloudy
11:20 AM 53.6 °F - 35.6 °F 51% 30.09 in - NNE 10.4 mph - N/A   Clear
11:50 AM 53.6 °F - 33.8 °F 47% 30.09 in - NE 8.1 mph - N/A   Clear
12:20 PM 53.6 °F - 32.0 °F 44% 30.06 in - NE 6.9 mph - N/A   Clear
12:50 PM 55.4 °F - 33.8 °F 44% 30.06 in - ENE 8.1 mph - N/A   Clear
1:20 PM 55.4 °F - 33.8 °F 44% 30.06 in - ENE 6.9 mph - N/A   Clear
1:50 PM 55.4 °F - 30.2 °F 38% 30.04 in - Variable 8.1 mph - N/A   Clear
2:20 PM 55.4 °F - 28.4 °F 36% 30.04 in - NNE 9.2 mph - N/A   Clear
2:50 PM 55.4 °F - 26.6 °F 33% 30.01 in - NNE 10.4 mph - N/A   Clear
3:20 PM 53.6 °F - 28.4 °F 38% 30.01 in - NNE 10.4 mph - N/A   Clear
3:50 PM 53.6 °F - 26.6 °F 35% 30.01 in - NNE 11.5 mph - N/A   Clear
4:20 PM 53.6 °F - 32.0 °F 44% 29.98 in - NNE 10.4 mph - N/A   Clear
4:50 PM 51.8 °F - 32.0 °F 47% 29.98 in - NNE 11.5 mph - N/A   Clear
5:20 PM 50.0 °F - 30.2 °F 47% 29.98 in - NNE 11.5 mph - N/A   Clear
5:50 PM 48.2 °F - 35.6 °F 62% 29.98 in - NNE 11.5 mph - N/A   Clear
6:20 PM 48.2 °F - 37.4 °F 66% 29.98 in - NNE 9.2 mph - N/A   Clear
6:50 PM 48.2 °F - 37.4 °F 66% 29.95 in - NE 6.9 mph - N/A   Clear
7:20 PM 48.2 °F - 39.2 °F 71% 29.95 in - NE 8.1 mph - N/A   Clear
7:50 PM 48.2 °F - 39.2 °F 71% 29.95 in - NE 6.9 mph - N/A   Clear
8:00 PM 48 °F - 41 °F 68% 29.96 in 6 mi NE 6.9 mph - -  
8:20 PM 48.2 °F - 41.0 °F 76% 29.95 in - East 6.9 mph - N/A   Clear
8:50 PM 48.2 °F - 39.2 °F 71% 29.92 in - Variable 5.8 mph - N/A   Clear
9:20 PM 46.4 °F 43.5 °F 41.0 °F 81% 29.92 in - NE 5.8 mph - N/A   Clear
9:50 PM 46.4 °F 44.3 °F 41.0 °F 81% 29.92 in - NNE 4.6 mph - N/A   Clear
10:20 PM 44.6 °F 42.2 °F 39.2 °F 81% 29.92 in 6.2 mi North 4.6 mph - N/A   Partly Cloudy
10:50 PM 42.8 °F 37.5 °F 41.0 °F 93% 29.89 in 6.2 mi NNW 9.2 mph - N/A   Partly Cloudy
11:20 PM 42.8 °F 37.0 °F 41.0 °F 93% 29.89 in 6.2 mi North 10.4 mph - N/A   Partly Cloudy
11:50 PM 42.8 °F 37.0 °F 41.0 °F 93% 29.89 in 3.7 mi North 10.4 mph - N/A   Partly Cloudy